| time (UTC) | temp C | wind direction | speed KPH | gust KPH | rain 1hr cm | rain 24hr cm | rain mn cm | humidity % | barometer mb |
| 20260906080103 | 19 | 43 | 0.0 | 3.2 | 0.00 | 0.00 | 0.00 | 88 | 1014.6 |
| 20260906074600 | 19 | 56 | 0.0 | 3.2 | 0.00 | 0.00 | 0.00 | 88 | 1014.5 |
| 20260906073058 | 19 | 44 | 0.0 | 4.8 | 0.00 | 0.00 | 0.00 | 88 | 1014.4 |
| 20260906071559 | 19 | 47 | 0.0 | 4.8 | 0.00 | 0.00 | 0.00 | 88 | 1014.4 |
| 20260906070058 | 20 | 45 | 0.0 | 8.0 | 0.00 | 0.00 | 0.00 | 88 | 1014.4 |
| 20260906064555 | 20 | 42 | 0.0 | 4.8 | 0.00 | 0.00 | 0.00 | 88 | 1014.5 |
| 20260906063055 | 20 | 53 | 0.0 | 3.2 | 0.00 | 0.00 | 0.00 | 88 | 1014.4 |
| 20260906061557 | 19 | 328 | 0.0 | 3.2 | 0.00 | 0.00 | 0.00 | 88 | 1014.4 |
| 20260906060053 | 19 | 71 | 0.0 | 1.6 | 0.00 | 0.00 | 0.00 | 88 | 1014.3 |
| 20260906054601 | 20 | 52 | 0.0 | 8.0 | 0.00 | 0.00 | 0.00 | 88 | 1014.1 |
| 20260906053056 | 20 | 50 | 1.6 | 6.4 | 0.00 | 0.00 | 0.00 | 88 | 1014.0 |
| 20260906051605 | 20 | 67 | 0.0 | 4.8 | 0.00 | 0.00 | 0.00 | 88 | 1014.0 |
| 20260906050046 | 20 | 56 | 0.0 | 3.2 | 0.00 | 0.00 | 0.00 | 89 | 1014.0 |
| 20260906044551 | 20 | 68 | 0.0 | 1.6 | 0.00 | 0.00 | 0.00 | 89 | 1014.0 |
| 20260906043044 | 20 | 57 | 0.0 | 6.4 | 0.00 | 0.00 | 0.00 | 88 | 1013.6 |
| 20260906041537 | 21 | 43 | 0.0 | 11.3 | 0.00 | 0.00 | 0.00 | 88 | 1013.6 |
| 20260906034534 | 21 | 46 | 1.6 | 17.7 | 0.00 | 0.00 | 0.00 | 88 | 1013.7 |
| 20260906033045 | 22 | 29 | 3.2 | 11.3 | 0.00 | 0.00 | 0.00 | 88 | 1013.7 |
| 20260906031531 | 22 | 77 | 0.0 | 11.3 | 0.00 | 0.00 | 0.00 | 88 | 1013.7 |
| 20260906030030 | 22 | 56 | 3.2 | 11.3 | 0.00 | 0.00 | 0.00 | 88 | 1013.4 |
| 20260906024528 | 22 | 44 | 1.6 | 14.5 | 0.00 | 0.00 | 0.00 | 88 | 1013.1 |
| 20260906023026 | 22 | 11 | 0.0 | 11.3 | 0.00 | 0.00 | 0.00 | 88 | 1012.9 |
| 20260906021525 | 23 | 41 | 3.2 | 17.7 | 0.00 | 0.00 | 0.00 | 88 | 1012.7 |
| 20260906020024 | 23 | 51 | 3.2 | 12.9 | 0.00 | 0.00 | 0.00 | 87 | 1012.7 |
| 20260906014527 | 23 | 46 | 0.0 | 17.7 | 0.00 | 0.00 | 0.00 | 87 | 1012.4 |
| 20260906013023 | 23 | 50 | 3.2 | 12.9 | 0.00 | 0.00 | 0.00 | 87 | 1012.0 |
| 20260906011522 | 23 | 48 | 3.2 | 11.3 | 0.00 | 0.00 | 0.00 | 87 | 1011.7 |
| 20260906010022 | 25 | 53 | 0.0 | 16.1 | 0.00 | 0.00 | 0.00 | 87 | 1011.4 |
| 20260906004521 | 26 | 44 | 6.4 | 14.5 | 0.00 | 0.00 | 0.00 | 84 | 1011.5 |
| 20260906003021 | 27 | 57 | 3.2 | 12.9 | 0.00 | 0.00 | 0.00 | 81 | 1011.3 |
| 20260906001523 | 27 | 56 | 1.6 | 8.0 | 0.00 | 0.00 | 0.00 | 81 | 1010.9 |
| 20260906000020 | 28 | 28 | 0.0 | 1.6 | 0.00 | 0.00 | 0.00 | 81 | 1010.9 |
| 20260905234520 | 28 | 13 | 0.0 | 0.0 | 0.00 | 0.00 | 0.00 | 80 | 1010.9 |
| 20260905233019 | 28 | 6 | 0.0 | 0.0 | 0.00 | 0.00 | 0.00 | 79 | 1010.8 |
| 20260905231520 | 29 | 226 | 0.0 | 1.6 | 0.00 | 0.00 | 0.00 | 77 | 1010.6 |
| 20260905230017 | 29 | 259 | 0.0 | 1.6 | 0.00 | 0.00 | 0.00 | 76 | 1010.6 |
| 20260905224538 | 30 | 59 | 0.0 | 3.2 | 0.00 | 0.00 | 0.00 | 76 | 1010.5 |
| 20260905223021 | 30 | 6 | 0.0 | 8.0 | 0.00 | 0.00 | 0.00 | 74 | 1010.5 |
| 20260905221515 | 30 | 50 | 0.0 | 9.7 | 0.00 | 0.00 | 0.00 | 75 | 1010.5 |
| 20260905220015 | 30 | 45 | 1.6 | 16.1 | 0.00 | 0.00 | 0.00 | 75 | 1010.5 |
| 20260905214515 | 30 | 28 | 1.6 | 9.7 | 0.00 | 0.00 | 0.00 | 77 | 1010.3 |
| 20260905213014 | 30 | 6 | 4.8 | 12.9 | 0.00 | 0.00 | 0.00 | 76 | 1010.1 |
| 20260905211534 | 31 | 64 | 4.8 | 14.5 | 0.00 | 0.00 | 0.00 | 74 | 1010.1 |
| 20260905210020 | 31 | 23 | 3.2 | 9.7 | 0.00 | 0.00 | 0.00 | 70 | 1009.9 |
| 20260905204511 | 33 | 275 | 0.0 | 9.7 | 0.00 | 0.00 | 0.00 | 66 | 1009.8 |
| 20260905203009 | 32 | 270 | 0.0 | 8.0 | 0.00 | 0.00 | 0.00 | 67 | 1009.9 |
| 20260905201504 | 32 | 242 | 0.0 | 6.4 | 0.00 | 0.00 | 0.00 | 67 | 1010.2 |
| 20260905200011 | 31 | 283 | 0.0 | 12.9 | 0.00 | 0.00 | 0.00 | 70 | 1010.5 |
| 20260905194503 | 31 | 264 | 1.6 | 9.7 | 0.00 | 0.00 | 0.00 | 70 | 1010.7 |
| 20260905193002 | 31 | 274 | 0.0 | 8.0 | 0.00 | 0.00 | 0.00 | 71 | 1010.8 |
| 20260905191502 | 31 | 280 | 0.0 | 9.7 | 0.00 | 0.00 | 0.00 | 71 | 1010.9 |
| 20260905190001 | 30 | 276 | 0.0 | 4.8 | 0.00 | 0.00 | 0.00 | 70 | 1011.1 |
| 20260905184501 | 32 | 219 | 0.0 | 8.0 | 0.00 | 0.00 | 0.00 | 66 | 1011.2 |
| 20260905183102 | 32 | 228 | 0.0 | 9.7 | 0.00 | 0.00 | 0.00 | 65 | 1011.3 |
| 20260905181558 | 32 | 296 | 0.0 | 14.5 | 0.00 | 0.00 | 0.00 | 65 | 1011.3 |
| 20260905174554 | 31 | 250 | 1.6 | 16.1 | 0.00 | 0.00 | 0.00 | 66 | 1011.7 |
| 20260905173106 | 31 | 141 | 1.6 | 11.3 | 0.00 | 0.00 | 0.00 | 65 | 1011.9 |
| 20260905171548 | 30 | 226 | 0.0 | 9.7 | 0.00 | 0.00 | 0.00 | 66 | 1012.2 |
| 20260905170055 | 30 | 226 | 0.0 | 12.9 | 0.00 | 0.00 | 0.00 | 67 | 1012.4 |
| 20260905164543 | 29 | 200 | 3.2 | 11.3 | 0.00 | 0.08 | 0.00 | 68 | 1012.7 |
| 20260905163041 | 29 | 248 | 1.6 | 9.7 | 0.00 | 0.08 | 0.00 | 69 | 1012.8 |
| 20260905161557 | 28 | 120 | 1.6 | 12.9 | 0.00 | 0.08 | 0.00 | 68 | 1012.8 |
| 20260905160035 | 28 | 137 | 0.0 | 8.0 | 0.00 | 0.08 | 0.00 | 71 | 1012.7 |
| 20260905154534 | 28 | 174 | 3.2 | 11.3 | 0.00 | 0.08 | 0.00 | 71 | 1012.6 |
| 20260905153033 | 28 | 138 | 3.2 | 12.9 | 0.00 | 0.08 | 0.00 | 71 | 1012.5 |
| 20260905151527 | 26 | 180 | 3.2 | 14.5 | 0.00 | 0.08 | 0.00 | 74 | 1012.3 |
| 20260905150026 | 26 | 143 | 3.2 | 16.1 | 0.00 | 0.08 | 0.00 | 74 | 1012.8 |
| 20260905144525 | 26 | 211 | 0.0 | 8.0 | 0.00 | 0.08 | 0.00 | 77 | 1012.6 |
| 20260905143022 | 25 | 132 | 3.2 | 16.1 | 0.00 | 0.08 | 0.00 | 79 | 1012.5 |
| 20260905141520 | 25 | 178 | 3.2 | 12.9 | 0.00 | 0.08 | 0.00 | 80 | 1012.5 |
| 20260905140019 | 23 | 108 | 4.8 | 16.1 | 0.00 | 0.08 | 0.00 | 82 | 1012.4 |
| 20260905134519 | 23 | 222 | 0.0 | 11.3 | 0.00 | 0.08 | 0.00 | 83 | 1012.3 |
| 20260905133024 | 23 | 127 | 3.2 | 12.9 | 0.00 | 0.08 | 0.00 | 82 | 1012.3 |
| 20260905131523 | 23 | 132 | 6.4 | 16.1 | 0.00 | 0.08 | 0.00 | 84 | 1012.5 |
| 20260905130014 | 22 | 129 | 1.6 | 16.1 | 0.00 | 0.08 | 0.00 | 86 | 1012.6 |
| 20260905124513 | 22 | 140 | 3.2 | 16.1 | 0.00 | 0.08 | 0.00 | 87 | 1012.6 |
| 20260905123012 | 21 | 118 | 6.4 | 12.9 | 0.00 | 0.08 | 0.00 | 87 | 1012.6 |
| 20260905121510 | 21 | 117 | 3.2 | 12.9 | 0.00 | 0.08 | 0.00 | 88 | 1012.6 |
| 20260905120008 | 21 | 132 | 1.6 | 14.5 | 0.00 | 0.08 | 0.00 | 88 | 1012.6 |
| 20260905114506 | 21 | 87 | 4.8 | 14.5 | 0.00 | 0.08 | 0.00 | 88 | 1012.6 |
| 20260905113006 | 21 | 145 | 3.2 | 16.1 | 0.00 | 0.08 | 0.00 | 88 | 1012.5 |
| 20260905111506 | 21 | 156 | 6.4 | 17.7 | 0.00 | 0.08 | 0.00 | 88 | 1012.3 |
| 20260905110003 | 21 | 146 | 4.8 | 17.7 | 0.00 | 0.08 | 0.00 | 88 | 1012.4 |
| 20260905104600 | 21 | 138 | 0.0 | 19.3 | 0.00 | 0.08 | 0.00 | 87 | 1012.3 |
| 20260905103101 | 22 | 129 | 3.2 | 17.7 | 0.00 | 0.08 | 0.00 | 86 | 1012.5 |
| 20260905101600 | 23 | 95 | 3.2 | 16.1 | 0.00 | 0.08 | 0.00 | 85 | 1012.3 |
| 20260905100117 | 23 | 95 | 4.8 | 14.5 | 0.00 | 0.08 | 0.00 | 89 | 1012.2 |
| 20260905094551 | 22 | 188 | 0.0 | 0.0 | 0.00 | 0.08 | 0.00 | 89 | 1011.4 |
| 20260905093048 | 22 | 187 | 0.0 | 0.0 | 0.00 | 0.08 | 0.00 | 89 | 1011.3 |
| 20260905091556 | 23 | 187 | 0.0 | 0.0 | 0.00 | 0.08 | 0.00 | 88 | 1011.3 |
| 20260905090044 | 23 | 187 | 0.0 | 0.0 | 0.00 | 0.08 | 0.00 | 88 | 1011.2 |
| 20260905084549 | 23 | 187 | 0.0 | 0.0 | 0.00 | 0.08 | 0.00 | 88 | 1011.3 |
| 20260905083102 | 23 | 187 | 0.0 | 0.0 | 0.00 | 0.08 | 0.00 | 88 | 1011.3 |
| 20260905081540 | 23 | 187 | 0.0 | 0.0 | 0.00 | 0.08 | 0.00 | 88 | 1011.2 |